Regional Weather Roundup
Issued by NWS

Home | Current Version | Previous Version | Graphics & Text | Print | Product List | Glossary On
Versions: 1 2 3 4 5 6 7 8 9 10 11 12 13 14 15 16 17 18 19 20 21 22 23 24 25 26 27 28 29 30 31 32 33 34 35 36 37 38 39 40 41 42 43 44 45 46 47 48 49 50
000
ASUS43 KLOT 280306
RWRIL

ILLINOIS REGIONAL WEATHER ROUNDUP
NATIONAL WEATHER SERVICE CHICAGO/ROMEOVILLE IL
1000 PM CDT WED AUG 27 2014

NOTE: "FAIR" INDICATES FEW OR NO CLOUDS BELOW 12,000 FEET WITH NO
SIGNIFICANT WEATHER AND/OR OBSTRUCTIONS TO VISIBILITY.

* THESE STATIONS ARE NOT UNDER NWS QUALITY CONTROL. THEY ALSO MAY NOT
  REPORT WEATHER SUCH AS PRECIPITATION OR FOG.

ILZ001-002-007-009-015-016-024-280400-
NORTHWEST ILLINOIS

CITY           SKY/WX    TMP DP  RH WIND       PRES   REMARKS
MOLINE         CLEAR     67  63  87 CALM      30.11R
STERLING*      CLEAR     64  61  88 CALM      30.13R
SAVANNA*       PTCLDY    67  63  87 CALM      30.13R
$$

ILZ003-004-008-010-011-017-018-280400-
NORTH CENTRAL ILLINOIS

CITY           SKY/WX    TMP DP  RH WIND       PRES   REMARKS
ROCKFORD       MOCLDY    68  63  84 E7        30.15R
FREEPORT*      CLEAR     63  61  94 CALM      30.16R
ROCHELLE*      PTCLDY    65  63  92 E3        30.14R
DE KALB*       PTCLDY    64  61  89 E5        30.14R
PERU*          MOCLDY    70  65  84 E5        30.12R
$$

ILZ005-006-012>014-019>023-280400-
NORTHEAST ILLINOIS

CITY           SKY/WX    TMP DP  RH WIND       PRES   REMARKS
CHICAGO-OHARE  PTCLDY    69  59  70 NE7       30.13R
CHICAGO-MIDWAY PTCLDY    71  62  73 E7        30.13R
AURORA         CLEAR     67  61  81 NE3       30.13R
LANSING*       PTCLDY    67  59  76 E5        30.13S
JOLIET*        CLEAR     67  60  77 NE6       30.13R
WAUKEGAN       CLEAR     64  60  87 E6        30.14R
DUPAGE AIRPORT CLEAR     67  61  81 E6        30.13R
KANKAKEE*      PTCLDY    66  62  86 NE5       30.12S
WHEELING       CLEAR     68  62  81 CALM      30.15R
MORRIS*        PTCLDY    67  65  91 CALM      30.12R
ROMEOVILLE*    CLEAR     66  60  81 E7        30.12S
NORTHERLY ISL    N/A     69  62  78 NE10        N/A
$$

LMZ740>746-280400-
SOUTHERN LAKE MICHIGAN

STATION/POSITION SKY/WX   TEMP    WIND        PRES    VSBY  WAVE
                          AIR SEA DIR/SP/G                  HT/PER
                          (F)     (DEG/KT/KT) (MB)    (MI)  (FT/S)
SOUTHERN BUOY              68 69   40/ 12/ 14 1020.5R         2/ 3
WAUKEGAN HARBOR            68      80/  9/ 10   N/A
HARRISON CRIB              69      60/ 11/ 13   N/A
BURNHAM HARBOR             69      60/  9/ 11   N/A
CALUMET HARBOR             70      50/  7/ 10 1018.9F
MICHIGAN CITY              68      50/  8/ 14   N/A
MICHIGAN CITY 6N           70 74   60/ 12/ 16   N/A           4/ 4
ST. JOSEPH                 68 73   60/  8/ 12   N/A           2/ 4
$$

ILZ025>027-034>036-040-047-049-050-058-095>099-280400-
WEST-CENTRAL ILLINOIS

CITY           SKY/WX    TMP DP  RH WIND       PRES   REMARKS
QUINCY         MOCLDY    75  73  93 NE6       30.07R
GALESBURG*     CLOUDY    68  65  92 NE5       30.11S
MACOMB*        MOCLDY    73  70  91 NE6       30.10S
JACKSONVILLE*  MOCLDY    77  74  93 NE5       30.09R
PITTSFIELD*    MOCLDY    74  69  86 CALM      30.08S
$$

ILZ028>032-037-038-041>044-048-051>054-059>061-280400-
CENTRAL ILLINOIS

CITY           SKY/WX    TMP DP  RH WIND       PRES   REMARKS
PONTIAC        MOCLDY    72  66  83 E3        30.11S
DECATUR        PTCLDY    73  70  90 CALM      30.11R
PEORIA         MOCLDY    75  66  73 CALM      30.10R
LACON*         MOCLDY    70  65  82 E5        30.09R
LINCOLN*       PTCLDY    73  70  90 CALM      30.06S
SPRINGFIELD    PTCLDY    75  73  93 CALM      30.09S
TAYLORVILLE    PTCLDY    70  70 100 CALM      30.10R
$$

ILZ033-039-045-046-055>057-062-063-280400-
EAST-CENTRAL ILLINOIS

CITY           SKY/WX    TMP DP  RH WIND       PRES   REMARKS
CHAMPAIGN      CLEAR     72  67  84 NE7       30.10R
DANVILLE*      PTCLDY    68  65  90 NE6       30.08R
RANTOUL*       CLEAR     72  65  77 NE6       30.11R
MATTOON        PTCLDY    74  71  91 N3        30.09R
PARIS*         PTCLDY    73  70  89 NE3       30.10S
$$

ILZ079-100>102-280400-
SOUTHWEST ILLINOIS

CITY           SKY/WX    TMP DP  RH WIND       PRES   REMARKS
BELLEVILLE     CLOUDY    73  72  99 E5        30.08R
SPARTA*        LGT RAIN  72  70  95 E10       30.10R
$$

ILZ064>066-069>071-074>076-080>082-084>086-088>090-092>094-280400-
SOUTH-CENTRAL ILLINOIS

CITY           SKY/WX    TMP DP  RH WIND       PRES   REMARKS
CARBONDALE     CLOUDY    76  69  79 NE7       30.07S
CAIRO*         MOCLDY    78  74  86 CALM      30.05R FOG     HX  81
EFFINGHAM*     LGT RAIN  72  68  88 NW5       30.10R
MARION         CLOUDY    79  72  78 N8G16     30.09S HX  82
MT. VERNON     CLOUDY    72  66  83 NW5       30.10F THUNDER
SALEM*         CLOUDY    73  71  95 CALM      30.10F
METROPOLIS*    MOCLDY    78  76  94 CALM      30.05S FOG
$$

ILZ067-068-072-073-078-083-087-091-280400-
SOUTHEAST ILLINOIS

CITY           SKY/WX    TMP DP  RH WIND       PRES   REMARKS
LAWRENCEVILLE  MOCLDY    77  73  87 NW6       30.07R
FLORA*         MOCLDY    77  70  80 W7        30.09R
FAIRFIELD*     LGT RAIN  77  73  88 NW6       30.09R
HARRISBURG*    CLOUDY    78  72  80 N5        30.08R HX  81
ROBINSON*      PTCLDY    73  72  95 CALM      30.08R
CARMI*           N/A     76  72  87 NW3       30.06S
$$

ABBREVIATIONS USED IN REMARKS
   TC - TEMPERATURE IN CELSIUS
  WCI - WIND CHILL INDEX
   HX - HEAT INDEX
  VSB - VISIBILITY
$$




USA.gov is the U.S. government's official web portal to all federal, state and local government web resources and services.